| time (UTC) | temp C | wind direction | speed KPH | gust KPH | rain 1hr cm | rain 24hr cm | rain mn cm | humidity % | barometer mb |
| 20260510172247 | 23 | 233 | 6.4 | 24.1 | 0.00 | 0.00 | 0.00 | 40 | 1016.0 |
| 20260510171744 | 23 | 195 | 6.4 | 6.4 | 0.00 | 0.00 | 0.00 | 41 | 1016.4 |
| 20260510171241 | 24 | 162 | 6.4 | 6.4 | 0.00 | 0.00 | 0.00 | 41 | 1016.1 |
| 20260510170738 | 23 | 196 | 11.3 | 22.5 | 0.00 | 0.00 | 0.00 | 44 | 1016.4 |
| 20260510170234 | 24 | 282 | 6.4 | 11.3 | 0.00 | 0.00 | 0.00 | 40 | 1016.3 |
| 20260510165730 | 23 | 201 | 9.7 | 20.9 | 0.00 | 0.00 | 0.00 | 41 | 1016.4 |
| 20260510165226 | 23 | 221 | 11.3 | 22.5 | 0.00 | 0.00 | 0.00 | 43 | 1016.8 |
| 20260510164723 | 22 | 163 | 12.9 | 22.5 | 0.00 | 0.00 | 0.00 | 40 | 1016.8 |
| 20260510164221 | 22 | 244 | 9.7 | 20.9 | 0.00 | 0.00 | 0.00 | 42 | 1016.8 |
| 20260510163716 | 23 | 208 | 12.9 | 20.9 | 0.00 | 0.00 | 0.00 | 41 | 1016.8 |
| 20260510163212 | 22 | 36 | 1.6 | 11.3 | 0.00 | 0.00 | 0.00 | 43 | 1017.0 |
| 20260510162711 | 23 | 249 | 6.4 | 17.7 | 0.00 | 0.00 | 0.00 | 42 | 1017.0 |
| 20260510162209 | 23 | 280 | 3.2 | 17.7 | 0.00 | 0.00 | 0.00 | 41 | 1016.8 |
| 20260510161704 | 22 | 242 | 3.2 | 14.5 | 0.00 | 0.00 | 0.00 | 43 | 1017.0 |
| 20260510161201 | 22 | 233 | 14.5 | 17.7 | 0.00 | 0.00 | 0.00 | 41 | 1017.1 |
| 20260510160658 | 22 | 233 | 9.7 | 27.4 | 0.00 | 0.00 | 0.00 | 42 | 1017.1 |
| 20260510160153 | 22 | 194 | 6.4 | 14.5 | 0.00 | 0.00 | 0.00 | 42 | 1017.0 |
| 20260510155649 | 22 | 175 | 17.7 | 20.9 | 0.00 | 0.00 | 0.00 | 42 | 1017.0 |
| 20260510155145 | 22 | 204 | 4.8 | 20.9 | 0.00 | 0.00 | 0.00 | 46 | 1017.3 |
| 20260510154641 | 22 | 204 | 14.5 | 16.1 | 0.00 | 0.00 | 0.00 | 45 | 1017.3 |
| 20260510154137 | 22 | 243 | 11.3 | 17.7 | 0.00 | 0.00 | 0.00 | 46 | 1017.2 |
| 20260510153632 | 22 | 103 | 9.7 | 12.9 | 0.00 | 0.00 | 0.00 | 45 | 1017.5 |
| 20260510153129 | 22 | 246 | 3.2 | 17.7 | 0.00 | 0.00 | 0.00 | 48 | 1017.4 |
| 20260510152626 | 22 | 176 | 4.8 | 9.7 | 0.00 | 0.00 | 0.00 | 45 | 1017.2 |
| 20260510152122 | 22 | 192 | 9.7 | 16.1 | 0.00 | 0.00 | 0.00 | 50 | 1017.4 |
| 20260510151619 | 21 | 145 | 14.5 | 20.9 | 0.00 | 0.00 | 0.00 | 45 | 1017.2 |
| 20260510151117 | 21 | 168 | 1.6 | 6.4 | 0.00 | 0.00 | 0.00 | 50 | 1017.3 |
| 20260510150617 | 21 | 153 | 6.4 | 14.5 | 0.00 | 0.00 | 0.00 | 53 | 1017.4 |
| 20260510150113 | 20 | 213 | 4.8 | 11.3 | 0.00 | 0.00 | 0.00 | 51 | 1017.0 |
| 20260510145609 | 20 | 239 | 4.8 | 11.3 | 0.00 | 0.00 | 0.00 | 53 | 1017.2 |
| 20260510145106 | 21 | 114 | 8.0 | 14.5 | 0.00 | 0.00 | 0.00 | 50 | 1017.1 |
| 20260510144602 | 21 | 243 | 6.4 | 11.3 | 0.00 | 0.00 | 0.00 | 51 | 1017.0 |
| 20260510144058 | 20 | 139 | 6.4 | 9.7 | 0.00 | 0.00 | 0.00 | 52 | 1017.0 |
| 20260510143554 | 20 | 262 | 12.9 | 22.5 | 0.00 | 0.00 | 0.00 | 52 | 1017.3 |
| 20260510143050 | 20 | 252 | 12.9 | 17.7 | 0.00 | 0.00 | 0.00 | 57 | 1017.1 |
| 20260510142547 | 20 | 82 | 4.8 | 4.8 | 0.00 | 0.00 | 0.00 | 58 | 1017.4 |
| 20260510142044 | 20 | 232 | 1.6 | 20.9 | 0.00 | 0.00 | 0.00 | 58 | 1017.3 |
| 20260510141541 | 20 | 196 | 6.4 | 12.9 | 0.00 | 0.00 | 0.00 | 59 | 1017.4 |
| 20260510141039 | 20 | 144 | 6.4 | 20.9 | 0.00 | 0.00 | 0.00 | 57 | 1017.4 |
| 20260510140535 | 20 | 155 | 1.6 | 12.9 | 0.00 | 0.00 | 0.00 | 60 | 1017.2 |
| 20260510140034 | 18 | 79 | 3.2 | 6.4 | 0.00 | 0.00 | 0.00 | 60 | 1017.3 |
| 20260510135530 | 16 | 148 | 16.1 | 24.1 | 0.00 | 0.00 | 0.00 | 67 | 1017.2 |
| 20260510135026 | 16 | 70 | 3.2 | 6.4 | 0.00 | 0.00 | 0.00 | 78 | 1017.4 |
| 20260510134524 | 15 | 32 | 1.6 | 4.8 | 0.00 | 0.00 | 0.00 | 79 | 1017.5 |
| 20260510134021 | 14 | 275 | 0.0 | 3.2 | 0.00 | 0.00 | 0.00 | 80 | 1017.6 |
| 20260510133516 | 14 | 322 | 1.6 | 1.6 | 0.00 | 0.00 | 0.00 | 82 | 1017.6 |
| 20260510133013 | 13 | 248 | 0.0 | 4.8 | 0.00 | 0.00 | 0.00 | 80 | 1017.3 |
| 20260510132510 | 13 | 62 | 0.0 | 0.0 | 0.00 | 0.00 | 0.00 | 83 | 1017.2 |
| 20260510132006 | 13 | 44 | 0.0 | 1.6 | 0.00 | 0.00 | 0.00 | 84 | 1017.3 |
| 20260510131504 | 13 | 192 | 3.2 | 6.4 | 0.00 | 0.00 | 0.00 | 82 | 1017.5 |
| 20260510131001 | 13 | 98 | 0.0 | 3.2 | 0.00 | 0.00 | 0.00 | 84 | 1017.2 |
| 20260510130457 | 13 | 55 | 3.2 | 4.8 | 0.00 | 0.00 | 0.00 | 84 | 1017.3 |
| 20260510125955 | 13 | 56 | 0.0 | 3.2 | 0.00 | 0.00 | 0.00 | 83 | 1017.3 |
| 20260510125451 | 13 | 80 | 1.6 | 1.6 | 0.00 | 0.00 | 0.00 | 83 | 1017.2 |
| 20260510124947 | 12 | 52 | 0.0 | 3.2 | 0.00 | 0.00 | 0.00 | 83 | 1017.3 |
| 20260510124444 | 12 | 95 | 0.0 | 1.6 | 0.00 | 0.00 | 0.00 | 84 | 1017.2 |
| 20260510123941 | 12 | 27 | 0.0 | 1.6 | 0.00 | 0.00 | 0.00 | 84 | 1017.4 |
| 20260510123436 | 12 | 68 | 4.8 | 4.8 | 0.00 | 0.00 | 0.00 | 84 | 1017.2 |
| 20260510122932 | 12 | 30 | 0.0 | 1.6 | 0.00 | 0.00 | 0.00 | 85 | 1017.3 |
| 20260510122432 | 11 | 22 | 0.0 | 0.0 | 0.00 | 0.00 | 0.00 | 85 | 1017.0 |
| 20260510121929 | 11 | 43 | 3.2 | 3.2 | 0.00 | 0.00 | 0.00 | 84 | 1017.1 |
| 20260510121427 | 11 | 33 | 0.0 | 0.0 | 0.00 | 0.00 | 0.00 | 85 | 1017.1 |
| 20260510120924 | 11 | 57 | 1.6 | 3.2 | 0.00 | 0.00 | 0.00 | 85 | 1016.8 |
| 20260510120421 | 11 | 45 | 1.6 | 1.6 | 0.00 | 0.00 | 0.00 | 86 | 1017.0 |
| 20260510115917 | 11 | 64 | 0.0 | 3.2 | 0.00 | 0.00 | 0.00 | 86 | 1016.8 |
| 20260510115414 | 10 | 66 | 0.0 | 0.0 | 0.00 | 0.00 | 0.00 | 85 | 1017.1 |
| 20260510114910 | 10 | 265 | 0.0 | 1.6 | 0.00 | 0.00 | 0.00 | 86 | 1017.2 |
| 20260510114407 | 10 | 83 | 0.0 | 3.2 | 0.00 | 0.00 | 0.00 | 87 | 1016.9 |
| 20260510113902 | 10 | 163 | 3.2 | 9.7 | 0.00 | 0.00 | 0.00 | 87 | 1017.0 |
| 20260510113358 | 10 | 21 | 0.0 | 3.2 | 0.00 | 0.00 | 0.00 | 89 | 1017.1 |
| 20260510112856 | 9 | 306 | 0.0 | 1.6 | 0.00 | 0.00 | 0.00 | 89 | 1017.0 |
| 20260510112352 | 9 | 130 | 0.0 | 4.8 | 0.00 | 0.00 | 0.00 | 88 | 1017.1 |
| 20260510111848 | 9 | 243 | 1.6 | 4.8 | 0.00 | 0.00 | 0.00 | 89 | 1017.1 |
| 20260510111346 | 8 | 173 | 4.8 | 9.7 | 0.00 | 0.00 | 0.00 | 88 | 1016.9 |
| 20260510110846 | 8 | 216 | 3.2 | 4.8 | 0.00 | 0.00 | 0.00 | 90 | 1016.9 |
| 20260510110343 | 8 | 260 | 4.8 | 4.8 | 0.00 | 0.00 | 0.00 | 91 | 1016.7 |
| 20260510105839 | 8 | 279 | 0.0 | 0.0 | 0.00 | 0.00 | 0.00 | 91 | 1016.5 |
| 20260510105339 | 8 | 102 | 1.6 | 3.2 | 0.00 | 0.00 | 0.00 | 92 | 1016.5 |
| 20260510104835 | 8 | 87 | 1.6 | 1.6 | 0.00 | 0.00 | 0.00 | 92 | 1016.4 |
| 20260510104332 | 8 | 96 | 3.2 | 3.2 | 0.00 | 0.00 | 0.00 | 92 | 1016.2 |
| 20260510103828 | 8 | 330 | 1.6 | 1.6 | 0.00 | 0.00 | 0.00 | 91 | 1016.3 |
| 20260510103325 | 8 | 114 | 0.0 | 3.2 | 0.00 | 0.00 | 0.00 | 91 | 1016.2 |
| 20260510102821 | 7 | 358 | 0.0 | 4.8 | 0.00 | 0.00 | 0.00 | 92 | 1016.2 |
| 20260510102317 | 7 | 314 | 4.8 | 4.8 | 0.00 | 0.00 | 0.00 | 92 | 1015.9 |
| 20260510101814 | 7 | 233 | 0.0 | 1.6 | 0.00 | 0.00 | 0.00 | 91 | 1015.9 |
| 20260510101312 | 7 | 269 | 1.6 | 3.2 | 0.00 | 0.00 | 0.00 | 92 | 1015.8 |
| 20260510100808 | 8 | 165 | 0.0 | 0.0 | 0.00 | 0.00 | 0.00 | 91 | 1015.7 |
| 20260510100306 | 7 | 106 | 1.6 | 4.8 | 0.00 | 0.00 | 0.00 | 92 | 1015.9 |
| 20260510095801 | 8 | 45 | 1.6 | 3.2 | 0.00 | 0.00 | 0.00 | 92 | 1015.8 |
| 20260510095257 | 7 | 50 | 0.0 | 3.2 | 0.00 | 0.00 | 0.00 | 92 | 1015.7 |
| 20260510094756 | 7 | 46 | 0.0 | 1.6 | 0.00 | 0.00 | 0.00 | 93 | 1015.6 |
| 20260510094251 | 7 | 85 | 0.0 | 3.2 | 0.00 | 0.00 | 0.00 | 94 | 1015.6 |
| 20260510093747 | 7 | 58 | 0.0 | 1.6 | 0.00 | 0.00 | 0.00 | 93 | 1015.6 |
| 20260510093245 | 7 | 225 | 3.2 | 3.2 | 0.00 | 0.00 | 0.00 | 93 | 1015.6 |
| 20260510092741 | 7 | 201 | 0.0 | 1.6 | 0.00 | 0.00 | 0.00 | 93 | 1015.5 |
| 20260510092237 | 7 | 46 | 3.2 | 3.2 | 0.00 | 0.00 | 0.00 | 92 | 1015.3 |
| 20260510091733 | 8 | 62 | 3.2 | 4.8 | 0.00 | 0.00 | 0.00 | 92 | 1015.3 |
| 20260510091230 | 8 | 49 | 0.0 | 3.2 | 0.00 | 0.00 | 0.00 | 92 | 1015.3 |
| 20260510090726 | 8 | 179 | 0.0 | 6.4 | 0.00 | 0.00 | 0.00 | 92 | 1015.3 |
| 20260510090224 | 7 | 109 | 4.8 | 4.8 | 0.00 | 0.00 | 0.00 | 92 | 1015.2 |
| 20260510085718 | 7 | 269 | 0.0 | 3.2 | 0.00 | 0.00 | 0.00 | 92 | 1015.2 |
| 20260510085213 | 7 | 98 | 3.2 | 4.8 | 0.00 | 0.00 | 0.00 | 92 | 1015.3 |
| 20260510084709 | 7 | 164 | 0.0 | 6.4 | 0.00 | 0.00 | 0.00 | 93 | 1015.3 |
| 20260510084207 | 7 | 199 | 0.0 | 6.4 | 0.00 | 0.00 | 0.00 | 93 | 1015.5 |
| 20260510083703 | 7 | 252 | 1.6 | 1.6 | 0.00 | 0.00 | 0.00 | 93 | 1015.4 |
| 20260510083201 | 7 | 109 | 4.8 | 4.8 | 0.00 | 0.00 | 0.00 | 92 | 1015.0 |
| 20260510082656 | 7 | 59 | 1.6 | 1.6 | 0.00 | 0.00 | 0.00 | 93 | 1015.2 |
| 20260510082152 | 7 | 40 | 4.8 | 4.8 | 0.00 | 0.00 | 0.00 | 93 | 1015.2 |
| 20260510081647 | 7 | 15 | 1.6 | 1.6 | 0.00 | 0.00 | 0.00 | 93 | 1015.1 |
| 20260510081143 | 7 | 81 | 3.2 | 3.2 | 0.00 | 0.00 | 0.00 | 93 | 1015.2 |
| 20260510080642 | 7 | 215 | 0.0 | 3.2 | 0.00 | 0.00 | 0.00 | 93 | 1015.1 |
| 20260510080140 | 7 | 98 | 1.6 | 3.2 | 0.00 | 0.00 | 0.00 | 92 | 1015.0 |
| 20260510075636 | 7 | 68 | 1.6 | 3.2 | 0.00 | 0.00 | 0.00 | 91 | 1015.2 |
| 20260510075134 | 7 | 128 | 0.0 | 1.6 | 0.00 | 0.00 | 0.00 | 91 | 1015.1 |
| 20260510074630 | 8 | 119 | 0.0 | 3.2 | 0.00 | 0.00 | 0.00 | 91 | 1014.8 |
| 20260510074126 | 8 | 355 | 0.0 | 1.6 | 0.00 | 0.00 | 0.00 | 91 | 1014.7 |
| 20260510073622 | 8 | 151 | 0.0 | 3.2 | 0.00 | 0.00 | 0.00 | 92 | 1015.0 |
| 20260510073119 | 7 | 187 | 1.6 | 6.4 | 0.00 | 0.00 | 0.00 | 92 | 1014.8 |
| 20260510072616 | 7 | 16 | 3.2 | 6.4 | 0.00 | 0.00 | 0.00 | 93 | 1015.0 |
| 20260510072112 | 7 | 350 | 0.0 | 3.2 | 0.00 | 0.00 | 0.00 | 94 | 1015.0 |
| 20260510071608 | 7 | 234 | 0.0 | 3.2 | 0.00 | 0.00 | 0.00 | 93 | 1015.0 |
| 20260510071107 | 7 | 42 | 0.0 | 1.6 | 0.00 | 0.00 | 0.00 | 92 | 1015.0 |
| 20260510070603 | 7 | 113 | 0.0 | 1.6 | 0.00 | 0.00 | 0.00 | 91 | 1014.8 |
| 20260510070100 | 7 | 54 | 3.2 | 4.8 | 0.00 | 0.00 | 0.00 | 92 | 1014.8 |
| 20260510065556 | 8 | 218 | 0.0 | 0.0 | 0.00 | 0.00 | 0.00 | 90 | 1014.7 |
| 20260510065052 | 8 | 49 | 3.2 | 4.8 | 0.00 | 0.00 | 0.00 | 90 | 1014.8 |
| 20260510064549 | 7 | 56 | 0.0 | 1.6 | 0.00 | 0.00 | 0.00 | 92 | 1014.8 |
| 20260510064045 | 7 | 55 | 3.2 | 3.2 | 0.00 | 0.00 | 0.00 | 91 | 1014.8 |
| 20260510063543 | 7 | 312 | 1.6 | 4.8 | 0.00 | 0.00 | 0.00 | 91 | 1014.7 |
| 20260510063040 | 7 | 38 | 1.6 | 1.6 | 0.00 | 0.00 | 0.00 | 90 | 1014.8 |
| 20260510062535 | 7 | 53 | 3.2 | 4.8 | 0.00 | 0.00 | 0.00 | 91 | 1015.0 |
| 20260510062031 | 7 | 55 | 3.2 | 4.8 | 0.00 | 0.00 | 0.00 | 91 | 1015.0 |
| 20260510061528 | 8 | 281 | 1.6 | 3.2 | 0.00 | 0.00 | 0.00 | 90 | 1015.1 |
| 20260510061024 | 7 | 72 | 0.0 | 3.2 | 0.00 | 0.00 | 0.00 | 90 | 1015.0 |
| 20260510060521 | 8 | 44 | 0.0 | 0.0 | 0.00 | 0.00 | 0.00 | 89 | 1014.8 |
| 20260510060017 | 8 | 130 | 0.0 | 3.2 | 0.00 | 0.00 | 0.00 | 89 | 1014.7 |
| 20260510055513 | 7 | 76 | 0.0 | 1.6 | 0.00 | 0.00 | 0.00 | 91 | 1014.8 |
| 20260510055011 | 7 | 79 | 4.8 | 4.8 | 0.00 | 0.00 | 0.00 | 91 | 1014.8 |
| 20260510054507 | 7 | 97 | 4.8 | 4.8 | 0.00 | 0.00 | 0.00 | 91 | 1015.1 |
| 20260510054002 | 7 | 216 | 0.0 | 1.6 | 0.00 | 0.00 | 0.00 | 90 | 1015.1 |
| 20260510053457 | 8 | 132 | 0.0 | 3.2 | 0.00 | 0.00 | 0.00 | 90 | 1015.3 |
| 20260510052953 | 7 | 250 | 1.6 | 4.8 | 0.00 | 0.00 | 0.00 | 90 | 1015.3 |
| 20260510052450 | 7 | 44 | 0.0 | 3.2 | 0.00 | 0.00 | 0.00 | 91 | 1015.2 |
| 20260510051946 | 7 | 49 | 0.0 | 1.6 | 0.00 | 0.00 | 0.00 | 92 | 1015.5 |
| 20260510051442 | 7 | 96 | 0.0 | 0.0 | 0.00 | 0.00 | 0.00 | 91 | 1015.4 |
| 20260510050938 | 7 | 96 | 0.0 | 1.6 | 0.00 | 0.00 | 0.00 | 91 | 1015.5 |
| 20260510050435 | 7 | 62 | 0.0 | 0.0 | 0.00 | 0.00 | 0.00 | 91 | 1015.6 |
| 20260510045933 | 7 | 62 | 0.0 | 0.0 | 0.00 | 0.00 | 0.00 | 91 | 1015.6 |
| 20260510045430 | 7 | 62 | 0.0 | 0.0 | 0.00 | 0.00 | 0.00 | 91 | 1015.5 |
| 20260510044926 | 7 | 60 | 0.0 | 0.0 | 0.00 | 0.00 | 0.00 | 91 | 1015.6 |
| 20260510044423 | 7 | 70 | 0.0 | 0.0 | 0.00 | 0.00 | 0.00 | 91 | 1015.4 |
| 20260510043920 | 7 | 96 | 0.0 | 0.0 | 0.00 | 0.00 | 0.00 | 90 | 1015.4 |
| 20260510043416 | 7 | 95 | 0.0 | 0.0 | 0.00 | 0.00 | 0.00 | 90 | 1015.3 |
| 20260510042914 | 7 | 119 | 0.0 | 0.0 | 0.00 | 0.00 | 0.00 | 89 | 1015.2 |
| 20260510042410 | 7 | 115 | 0.0 | 0.0 | 0.00 | 0.00 | 0.00 | 89 | 1015.2 |
| 20260510041906 | 7 | 84 | 0.0 | 0.0 | 0.00 | 0.00 | 0.00 | 90 | 1015.0 |
| 20260510041403 | 8 | 83 | 0.0 | 0.0 | 0.00 | 0.00 | 0.00 | 89 | 1014.8 |
| 20260510040901 | 8 | 82 | 0.0 | 1.6 | 0.00 | 0.00 | 0.00 | 88 | 1014.8 |
| 20260510040358 | 7 | 125 | 0.0 | 0.0 | 0.00 | 0.00 | 0.00 | 90 | 1015.0 |
| 20260510035853 | 7 | 103 | 0.0 | 0.0 | 0.00 | 0.00 | 0.00 | 90 | 1014.7 |
| 20260510035349 | 7 | 103 | 1.6 | 1.6 | 0.00 | 0.00 | 0.00 | 90 | 1015.3 |
| 20260510034844 | 7 | 104 | 0.0 | 0.0 | 0.00 | 0.00 | 0.00 | 89 | 1015.2 |
| 20260510034343 | 7 | 104 | 0.0 | 0.0 | 0.00 | 0.00 | 0.00 | 88 | 1015.1 |
| 20260510033839 | 8 | 114 | 0.0 | 0.0 | 0.00 | 0.00 | 0.00 | 88 | 1015.1 |
| 20260510033336 | 8 | 120 | 0.0 | 0.0 | 0.00 | 0.00 | 0.00 | 87 | 1015.1 |
| 20260510032832 | 8 | 123 | 1.6 | 1.6 | 0.00 | 0.00 | 0.00 | 87 | 1015.0 |
| 20260510032329 | 8 | 121 | 0.0 | 0.0 | 0.00 | 0.00 | 0.00 | 87 | 1014.8 |
| 20260510031825 | 8 | 129 | 0.0 | 0.0 | 0.00 | 0.00 | 0.00 | 87 | 1015.0 |
| 20260510031320 | 8 | 169 | 0.0 | 0.0 | 0.00 | 0.00 | 0.00 | 87 | 1015.1 |
| 20260510030815 | 8 | 87 | 0.0 | 1.6 | 0.00 | 0.00 | 0.00 | 86 | 1014.8 |
| 20260510030311 | 8 | 86 | 0.0 | 0.0 | 0.00 | 0.00 | 0.00 | 88 | 1014.8 |
| 20260510025809 | 8 | 131 | 0.0 | 0.0 | 0.00 | 0.00 | 0.00 | 87 | 1014.8 |
| 20260510025306 | 8 | 117 | 0.0 | 0.0 | 0.00 | 0.00 | 0.00 | 87 | 1014.8 |
| 20260510024803 | 8 | 145 | 0.0 | 0.0 | 0.00 | 0.00 | 0.00 | 86 | 1015.0 |
| 20260510024300 | 8 | 158 | 0.0 | 0.0 | 0.00 | 0.00 | 0.00 | 86 | 1015.0 |
| 20260510023755 | 8 | 81 | 0.0 | 0.0 | 0.00 | 0.00 | 0.00 | 85 | 1014.6 |
| 20260510023247 | 9 | 72 | 0.0 | 0.0 | 0.00 | 0.00 | 0.00 | 84 | 1014.7 |
| 20260510022744 | 9 | 108 | 0.0 | 3.2 | 0.00 | 0.00 | 0.00 | 84 | 1014.7 |
| 20260510022243 | 9 | 223 | 1.6 | 3.2 | 0.00 | 0.00 | 0.00 | 84 | 1014.6 |
| 20260510021742 | 9 | 131 | 0.0 | 0.0 | 0.00 | 0.00 | 0.00 | 83 | 1014.6 |
| 20260510021241 | 8 | 109 | 0.0 | 1.6 | 0.00 | 0.00 | 0.00 | 85 | 1014.6 |
| 20260510020737 | 9 | 81 | 0.0 | 0.0 | 0.00 | 0.00 | 0.00 | 85 | 1014.3 |
| 20260510020236 | 9 | 175 | 0.0 | 0.0 | 0.00 | 0.00 | 0.00 | 83 | 1014.3 |
| 20260510015733 | 9 | 106 | 0.0 | 0.0 | 0.00 | 0.00 | 0.00 | 83 | 1014.1 |
| 20260510015229 | 10 | 261 | 1.6 | 1.6 | 0.00 | 0.00 | 0.00 | 81 | 1014.2 |
| 20260510014724 | 10 | 95 | 0.0 | 0.0 | 0.00 | 0.00 | 0.00 | 82 | 1014.1 |
| 20260510014222 | 10 | 106 | 0.0 | 0.0 | 0.00 | 0.00 | 0.00 | 80 | 1013.9 |
| 20260510013717 | 9 | 116 | 0.0 | 0.0 | 0.00 | 0.00 | 0.00 | 83 | 1014.0 |
| 20260510013214 | 10 | 82 | 0.0 | 0.0 | 0.00 | 0.00 | 0.00 | 81 | 1013.7 |
| 20260510012713 | 10 | 92 | 0.0 | 0.0 | 0.00 | 0.00 | 0.00 | 80 | 1013.8 |
| 20260510012209 | 10 | 178 | 0.0 | 0.0 | 0.00 | 0.00 | 0.00 | 79 | 1013.6 |
| 20260510011704 | 11 | 112 | 0.0 | 0.0 | 0.00 | 0.00 | 0.00 | 78 | 1013.4 |
| 20260510011159 | 11 | 119 | 0.0 | 0.0 | 0.00 | 0.00 | 0.00 | 77 | 1013.5 |
| 20260510010656 | 11 | 58 | 0.0 | 0.0 | 0.00 | 0.00 | 0.00 | 77 | 1013.4 |
| 20260510010148 | 11 | 110 | 0.0 | 0.0 | 0.00 | 0.00 | 0.00 | 76 | 1013.4 |
| 20260510005644 | 11 | 271 | 0.0 | 0.0 | 0.00 | 0.00 | 0.00 | 76 | 1013.4 |
| 20260510005141 | 11 | 122 | 0.0 | 0.0 | 0.00 | 0.00 | 0.00 | 76 | 1013.2 |
| 20260510004639 | 11 | 125 | 0.0 | 0.0 | 0.00 | 0.00 | 0.00 | 75 | 1013.0 |
| 20260510004137 | 12 | 117 | 0.0 | 1.6 | 0.00 | 0.00 | 0.00 | 72 | 1012.8 |
| 20260510003634 | 12 | 204 | 0.0 | 1.6 | 0.00 | 0.00 | 0.00 | 72 | 1012.8 |
| 20260510003130 | 13 | 119 | 0.0 | 1.6 | 0.00 | 0.00 | 0.00 | 70 | 1012.7 |
| 20260510002629 | 13 | 93 | 0.0 | 1.6 | 0.00 | 0.00 | 0.00 | 68 | 1012.6 |
| 20260510002127 | 13 | 117 | 0.0 | 0.0 | 0.00 | 0.00 | 0.00 | 71 | 1012.6 |
| 20260510001623 | 13 | 145 | 0.0 | 0.0 | 0.00 | 0.00 | 0.00 | 68 | 1012.5 |
| 20260510001122 | 13 | 108 | 1.6 | 3.2 | 0.00 | 0.00 | 0.00 | 68 | 1012.3 |
| 20260510000622 | 14 | 141 | 0.0 | 0.0 | 0.00 | 0.00 | 0.00 | 68 | 1012.4 |
| 20260510000120 | 14 | 112 | 0.0 | 0.0 | 0.00 | 0.00 | 0.00 | 65 | 1012.3 |
| 20260509235616 | 15 | 137 | 0.0 | 0.0 | 0.00 | 0.00 | 0.00 | 62 | 1012.3 |
| 20260509235113 | 15 | 116 | 0.0 | 1.6 | 0.00 | 0.00 | 0.00 | 63 | 1012.3 |
| 20260509234609 | 15 | 159 | 0.0 | 0.0 | 0.00 | 0.00 | 0.00 | 59 | 1012.1 |
| 20260509234107 | 15 | 130 | 0.0 | 3.2 | 0.00 | 0.00 | 0.00 | 60 | 1012.1 |
| 20260509233604 | 16 | 209 | 1.6 | 3.2 | 0.00 | 0.00 | 0.00 | 58 | 1012.1 |
| 20260509233101 | 17 | 219 | 0.0 | 3.2 | 0.00 | 0.00 | 0.00 | 55 | 1012.2 |
| 20260509232557 | 17 | 290 | 1.6 | 4.8 | 0.00 | 0.00 | 0.00 | 50 | 1012.1 |
| 20260509232055 | 17 | 207 | 4.8 | 4.8 | 0.00 | 0.00 | 0.00 | 51 | 1012.2 |
| 20260509231551 | 18 | 290 | 4.8 | 6.4 | 0.00 | 0.00 | 0.00 | 50 | 1012.3 |
| 20260509231049 | 19 | 248 | 4.8 | 9.7 | 0.00 | 0.00 | 0.00 | 45 | 1012.4 |
| 20260509230545 | 19 | 203 | 6.4 | 11.3 | 0.00 | 0.00 | 0.00 | 45 | 1012.3 |
| 20260509230043 | 20 | 230 | 3.2 | 6.4 | 0.00 | 0.00 | 0.00 | 46 | 1012.4 |
| 20260509225538 | 20 | 137 | 3.2 | 11.3 | 0.00 | 0.00 | 0.00 | 47 | 1012.3 |
| 20260509225033 | 20 | 134 | 6.4 | 12.9 | 0.00 | 0.00 | 0.00 | 44 | 1012.5 |
| 20260509224529 | 19 | 177 | 9.7 | 12.9 | 0.00 | 0.00 | 0.00 | 45 | 1012.3 |
| 20260509224026 | 19 | 99 | 8.0 | 24.1 | 0.00 | 0.00 | 0.00 | 45 | 1012.1 |
| 20260509223523 | 20 | 187 | 1.6 | 4.8 | 0.00 | 0.00 | 0.00 | 47 | 1012.4 |
| 20260509223021 | 19 | 216 | 3.2 | 9.7 | 0.00 | 0.00 | 0.00 | 49 | 1012.3 |
| 20260509222517 | 19 | 206 | 8.0 | 12.9 | 0.00 | 0.00 | 0.00 | 49 | 1012.2 |
| 20260509222012 | 19 | 185 | 8.0 | 11.3 | 0.00 | 0.00 | 0.00 | 46 | 1012.2 |
| 20260509221509 | 20 | 214 | 4.8 | 9.7 | 0.00 | 0.00 | 0.00 | 47 | 1012.4 |
| 20260509221004 | 19 | 269 | 6.4 | 6.4 | 0.00 | 0.00 | 0.00 | 48 | 1012.3 |
| 20260509220501 | 19 | 217 | 11.3 | 16.1 | 0.00 | 0.00 | 0.00 | 47 | 1012.2 |
| 20260509215957 | 20 | 185 | 9.7 | 11.3 | 0.00 | 0.00 | 0.00 | 45 | 1012.0 |
| 20260509215452 | 20 | 189 | 4.8 | 4.8 | 0.00 | 0.00 | 0.00 | 44 | 1012.2 |
| 20260509214950 | 19 | 195 | 3.2 | 4.8 | 0.00 | 0.00 | 0.00 | 43 | 1011.9 |
| 20260509214447 | 20 | 283 | 1.6 | 11.3 | 0.00 | 0.00 | 0.00 | 46 | 1012.0 |
| 20260509213944 | 19 | 195 | 8.0 | 14.5 | 0.00 | 0.00 | 0.00 | 47 | 1012.1 |
| 20260509213440 | 20 | 264 | 6.4 | 9.7 | 0.00 | 0.00 | 0.00 | 44 | 1012.0 |
| 20260509212937 | 20 | 168 | 4.8 | 9.7 | 0.00 | 0.00 | 0.00 | 41 | 1011.8 |
| 20260509212435 | 20 | 230 | 6.4 | 6.4 | 0.00 | 0.00 | 0.00 | 43 | 1011.6 |
| 20260509211930 | 20 | 278 | 3.2 | 9.7 | 0.00 | 0.00 | 0.00 | 41 | 1011.6 |
| 20260509211426 | 21 | 258 | 8.0 | 11.3 | 0.00 | 0.00 | 0.00 | 41 | 1011.7 |
| 20260509210923 | 20 | 170 | 8.0 | 12.9 | 0.00 | 0.00 | 0.00 | 42 | 1011.4 |
| 20260509210420 | 20 | 214 | 6.4 | 9.7 | 0.00 | 0.00 | 0.00 | 44 | 1011.2 |
| 20260509205915 | 21 | 203 | 1.6 | 11.3 | 0.00 | 0.00 | 0.00 | 43 | 1011.5 |
| 20260509205415 | 20 | 224 | 9.7 | 12.9 | 0.00 | 0.00 | 0.00 | 41 | 1011.2 |
| 20260509204911 | 20 | 209 | 3.2 | 16.1 | 0.00 | 0.00 | 0.00 | 43 | 1011.2 |
| 20260509204408 | 19 | 233 | 8.0 | 17.7 | 0.00 | 0.00 | 0.00 | 40 | 1011.1 |
| 20260509203904 | 19 | 168 | 11.3 | 14.5 | 0.00 | 0.00 | 0.00 | 40 | 1010.9 |
| 20260509203401 | 20 | 195 | 3.2 | 9.7 | 0.00 | 0.00 | 0.00 | 43 | 1011.0 |
| 20260509202858 | 20 | 193 | 11.3 | 12.9 | 0.00 | 0.00 | 0.00 | 40 | 1010.9 |
| 20260509202354 | 20 | 211 | 6.4 | 17.7 | 0.00 | 0.00 | 0.00 | 40 | 1010.9 |
| 20260509201849 | 20 | 176 | 9.7 | 22.5 | 0.00 | 0.00 | 0.00 | 39 | 1010.9 |
| 20260509201345 | 20 | 278 | 9.7 | 14.5 | 0.00 | 0.00 | 0.00 | 37 | 1010.9 |
| 20260509200842 | 21 | 170 | 16.1 | 20.9 | 0.00 | 0.00 | 0.00 | 39 | 1010.9 |
| 20260509200336 | 21 | 233 | 4.8 | 6.4 | 0.00 | 0.00 | 0.00 | 39 | 1010.9 |
| 20260509195834 | 21 | 156 | 12.9 | 20.9 | 0.00 | 0.00 | 0.00 | 38 | 1011.1 |
| 20260509195333 | 20 | 183 | 17.7 | 24.1 | 0.00 | 0.00 | 0.00 | 39 | 1010.9 |
| 20260509194828 | 20 | 217 | 6.4 | 12.9 | 0.00 | 0.00 | 0.00 | 39 | 1010.9 |
| 20260509194324 | 20 | 241 | 9.7 | 16.1 | 0.00 | 0.00 | 0.00 | 42 | 1011.1 |
| 20260509193821 | 20 | 203 | 4.8 | 12.9 | 0.00 | 0.00 | 0.00 | 41 | 1011.0 |
| 20260509193321 | 20 | 206 | 12.9 | 20.9 | 0.00 | 0.00 | 0.00 | 40 | 1010.9 |
| 20260509192817 | 20 | 225 | 4.8 | 9.7 | 0.00 | 0.00 | 0.00 | 43 | 1011.0 |
| 20260509192313 | 20 | 288 | 4.8 | 14.5 | 0.00 | 0.00 | 0.00 | 40 | 1010.9 |
| 20260509191808 | 20 | 215 | 4.8 | 9.7 | 0.00 | 0.00 | 0.00 | 46 | 1011.0 |
| 20260509191305 | 20 | 144 | 11.3 | 17.7 | 0.00 | 0.00 | 0.00 | 40 | 1011.4 |
| 20260509190800 | 21 | 215 | 3.2 | 6.4 | 0.00 | 0.00 | 0.00 | 45 | 1011.4 |
| 20260509190258 | 20 | 58 | 0.0 | 6.4 | 0.00 | 0.00 | 0.00 | 40 | 1011.1 |
| 20260509185755 | 19 | 227 | 3.2 | 9.7 | 0.00 | 0.00 | 0.00 | 47 | 1011.4 |
| 20260509185251 | 19 | 206 | 6.4 | 12.9 | 0.00 | 0.00 | 0.00 | 49 | 1011.4 |
| 20260509184749 | 19 | 209 | 3.2 | 11.3 | 0.00 | 0.00 | 0.00 | 41 | 1011.4 |
| 20260509184246 | 19 | 229 | 6.4 | 11.3 | 0.00 | 0.00 | 0.00 | 45 | 1011.2 |
| 20260509183742 | 20 | 179 | 9.7 | 11.3 | 0.00 | 0.00 | 0.00 | 47 | 1011.2 |
| 20260509183238 | 21 | 263 | 8.0 | 16.1 | 0.00 | 0.00 | 0.00 | 44 | 1011.4 |
| 20260509182734 | 20 | 272 | 4.8 | 20.9 | 0.00 | 0.00 | 0.00 | 43 | 1011.4 |
| 20260509182231 | 20 | 6 | 4.8 | 14.5 | 0.00 | 0.00 | 0.00 | 45 | 1011.5 |
| 20260509181728 | 21 | 222 | 9.7 | 20.9 | 0.00 | 0.00 | 0.00 | 48 | 1011.4 |
| 20260509181225 | 20 | 156 | 4.8 | 6.4 | 0.00 | 0.00 | 0.00 | 45 | 1011.7 |
| 20260509180722 | 19 | 241 | 1.6 | 11.3 | 0.00 | 0.00 | 0.00 | 51 | 1011.8 |
| 20260509180219 | 19 | 307 | 3.2 | 4.8 | 0.00 | 0.00 | 0.00 | 46 | 1011.9 |
| 20260509175715 | 19 | 181 | 6.4 | 11.3 | 0.00 | 0.00 | 0.00 | 45 | 1011.8 |
| 20260509175212 | 19 | 234 | 4.8 | 11.3 | 0.00 | 0.00 | 0.00 | 51 | 1011.8 |
| 20260509174707 | 19 | 220 | 8.0 | 16.1 | 0.00 | 0.00 | 0.00 | 49 | 1011.8 |
| 20260509174202 | 19 | 271 | 3.2 | 9.7 | 0.00 | 0.00 | 0.00 | 52 | 1012.1 |
| 20260509173659 | 19 | 181 | 4.8 | 4.8 | 0.00 | 0.00 | 0.00 | 53 | 1012.1 |
| 20260509173155 | 18 | 214 | 1.6 | 4.8 | 0.00 | 0.00 | 0.00 | 49 | 1012.2 |
| 20260509172651 | 18 | 348 | 3.2 | 3.2 | 0.00 | 0.00 | 0.00 | 53 | 1012.3 |